Regional Weather Roundup
Issued by NWS

Home | Current Version | Previous Version | Text Only | Print | Product List | Glossary Off
Versions: 1 2 3 4 5 6 7 8 9 10 11 12 13 14 15 16 17 18 19 20 21 22 23 24 25 26 27 28 29 30 31 32 33 34 35 36 37 38 39 40 41 42 43 44 45 46 47 48 49 50

000
ASUS43 KOAX 200610
RWRNE

WEATHER ROUNDUP FOR NEBRASKA
NATIONAL WEATHER SERVICE OMAHA NE
100 AM CDT SAT SEP 20 2014

NOTES: SATELLITE DATA IS BEING USED TO AUGMENT CLOUD COVER ABOVE
       12000 FEET.
       "FAIR" INDICATES FEW OR NO CLOUDS BELOW 12,000 FEET WITH NO
       SIGNIFICANT WEATHER AND/OR OBSTRUCTIONS TO VISIBILITY.

  * THESE STATIONS DO NOT REPORT WEATHER SUCH AS RAIN...SNOW OR FOG.

NEZ001>004-019>022-054>056-200700-
NEBRASKA PANHANDLE

CITY           SKY/WX    TMP DP  RH WIND       PRES   REMARKS
SCOTTSBLUFF    CLEAR     61  51  70 N8        30.00R
6HR MIN TEMP:  60; 6HR MAX TEMP:  88;

ALLIANCE       PTCLDY    60  51  72 N12       29.98R
6HR MIN TEMP:  57; 6HR MAX TEMP:  84;

CHADRON        PTCLDY    57  52  83 W6        29.99R
6HR MIN TEMP:  56; 6HR MAX TEMP:  85;

KIMBALL        CLEAR     57  52  83 N5        30.02R
SIDNEY         MOCLDY    62  55  77 NW9       29.99R
6HR MIN TEMP:  62; 6HR MAX TEMP:  86;

$$

NEZ057>060-069>072-079>082-200700-
SOUTHWEST NEBRASKA

CITY           SKY/WX    TMP DP  RH WIND       PRES   REMARKS
NORTH PLATTE   MOCLDY    69  60  73 W12       29.92R
6HR MIN TEMP:  65; 6HR MAX TEMP:  85;

IMPERIAL       CLOUDY    73  60  63 S13       29.90S
6HR MIN TEMP:  73; 6HR MAX TEMP:  88;

LEXINGTON      PTCLDY    75  60  59 SW15G22   29.87R
MCCOOK         PTCLDY    72  59  63 S10       29.89R
6HR MIN TEMP:  72; 6HR MAX TEMP:  87;

OGALLALA       PTCLDY    69  59  70 E6        29.90S
$$

NEZ005>010-023>029-035>040-094-200700-
NORTH CENTRAL NEBRASKA

CITY           SKY/WX    TMP DP  RH WIND       PRES   REMARKS
VALENTINE      PTCLDY    60  56  86 CALM      29.91R
6HR MIN TEMP:  60; 6HR MAX TEMP:  85;

AINSWORTH      PTCLDY    62  55  80 CALM      29.90S
BROKEN BOW     MOCLDY    70  61  73 S3        29.87R
6HR MIN TEMP:  70; 6HR MAX TEMP:  88;

O`NEILL        PTCLDY    66  61  86 W9        29.87R
ORD            PTCLDY    74  60  61 SW5       29.84R
6HR MIN TEMP:  71; 6HR MAX TEMP:  85;

THEDFORD       MOCLDY    64  58  83 N7        29.92R
$$

NEZ041-046>049-061>064-073>077-083>087-200700-
SOUTH CENTRAL NEBRASKA

CITY           SKY/WX    TMP DP  RH WIND       PRES   REMARKS
GRAND ISLAND   CLEAR     76  61  59 SW21G26   29.84R
6HR MIN TEMP:  76; 6HR MAX TEMP:  85;

AURORA         CLEAR     73  60  63 SW12      29.84R
HASTINGS       CLEAR     74  58  57 S13       29.86R
6HR MIN TEMP:  72; 6HR MAX TEMP:  85;

HEBRON         CLEAR     73  63  68 S13G21    29.86F
HOLDREGE       CLEAR     71  58  63 SW10      29.88R
KEARNEY *      PTCLDY    72  59  64 S14       29.88R
YORK           CLEAR     72  64  78 SW13      29.83S
$$

NEZ011>018-030>034-042>045-200700-
NORTHEAST NEBRASKA

CITY           SKY/WX    TMP DP  RH WIND       PRES   REMARKS
NORFOLK        LGT RAIN  73  66  78 SW9       29.81R
6HR MIN TEMP:  73; 6HR MAX TEMP:  84; 6HR PCP:  0.08;

ALBION         MOCLDY    74  61  63 W6        29.84R
BLAIR          CLEAR     73  68  83 S16       29.80S
COLUMBUS *     CLEAR     75  63  64 SW9       29.83R
FREMONT        MOCLDY    76  67  75 S13       29.80R
TEKAMAH        MOCLDY    76  69  79 SW9G21    29.78R
6HR MIN TEMP:  74; 6HR MAX TEMP:  85;

WAYNE          CLOUDY    67  65  93 CALM      29.81S THUNDER
$$

NEZ050>053-065>068-078-088>093-200700-
SOUTHEAST NEBRASKA

CITY           SKY/WX    TMP DP  RH WIND       PRES   REMARKS
LINCOLN        CLEAR     75  67  76 S17G26    29.81F
6HR MIN TEMP:  73; 6HR MAX TEMP:  85;

OMAHA EPPLEY   PTCLDY    74  67  78 S14       29.80F
6HR MIN TEMP:  74; 6HR MAX TEMP:  83;

BEATRICE       CLEAR     71  68  89 S14G21    29.85F
FALLS CITY     CLEAR     70  68  93 S16       29.87F
6HR MIN TEMP:  70; 6HR MAX TEMP:  78;

NEBRASKA CITY    N/A     69  68  94 S14G21    29.84F
PLATTSMOUTH    CLEAR     70  66  87 S13       29.83F
$$

NEZ044-045-051>053-067-200700-
OMAHA AREA

CITY           SKY/WX    TMP DP  RH WIND       PRES   REMARKS
OMAHA EPPLEY   PTCLDY    74  67  78 S14       29.80F
6HR MIN TEMP:  74; 6HR MAX TEMP:  83;

BLAIR          CLEAR     73  68  83 S16       29.80S
FREMONT        MOCLDY    76  67  75 S13       29.80R
MILLARD        CLEAR     74  68  82 S7        29.81S
OFFUTT AFB     CLEAR     72  71  99 S8        29.81F
PLATTSMOUTH    CLEAR     70  66  87 S13       29.83F
WAHOO          FAIR      75  66  73 SW12G18   29.80S
$$


USA.gov is the U.S. government's official web portal to all federal, state and local government web resources and services.